| time (UTC) | temp F | wind direction | speed MPH | gust MPH | rain 1hr in | rain 24hr in | rain mn in | humidity % | barometer mb |
| 20260504035004 | 56 | 172 | 1.0 | 3.0 | 0.00 | 0.00 | 0.00 | 74 | 1008.3 |
| 20260504034503 | 56 | 174 | 1.0 | 3.0 | 0.00 | 0.00 | 0.00 | 72 | 1008.5 |
| 20260504034003 | 56 | 173 | 1.0 | 3.0 | 0.00 | 0.00 | 0.00 | 72 | 1008.4 |
| 20260504033503 | 56 | 172 | 1.0 | 2.0 | 0.00 | 0.00 | 0.00 | 72 | 1008.5 |
| 20260504033004 | 56 | 171 | 1.0 | 2.0 | 0.00 | 0.00 | 0.00 | 72 | 1008.4 |
| 20260504032503 | 56 | 170 | 1.0 | 2.0 | 0.00 | 0.00 | 0.00 | 72 | 1008.5 |
| 20260504032002 | 55 | 170 | 1.0 | 2.0 | 0.00 | 0.00 | 0.00 | 73 | 1008.5 |
| 20260504031503 | 55 | 170 | 1.0 | 1.0 | 0.00 | 0.00 | 0.00 | 73 | 1008.4 |
| 20260504031003 | 55 | 170 | 1.0 | 2.0 | 0.00 | 0.00 | 0.00 | 73 | 1008.4 |
| 20260504030502 | 55 | 170 | 1.0 | 2.0 | 0.00 | 0.00 | 0.00 | 73 | 1008.3 |
| 20260504030004 | 55 | 169 | 1.0 | 3.0 | 0.00 | 0.00 | 0.00 | 73 | 1008.3 |
| 20260504025503 | 55 | 169 | 1.0 | 3.0 | 0.00 | 0.00 | 0.00 | 73 | 1008.3 |
| 20260504025024 | 55 | 169 | 2.0 | 3.0 | 0.00 | 0.00 | 0.00 | 73 | 1008.3 |
| 20260504024504 | 55 | 170 | 2.0 | 4.0 | 0.00 | 0.00 | 0.00 | 72 | 1008.3 |
| 20260504024003 | 55 | 171 | 2.0 | 4.0 | 0.00 | 0.00 | 0.00 | 72 | 1008.4 |
| 20260504023504 | 55 | 171 | 2.0 | 3.0 | 0.00 | 0.00 | 0.00 | 71 | 1008.3 |
| 20260504023003 | 55 | 167 | 2.0 | 3.0 | 0.00 | 0.00 | 0.00 | 71 | 1008.3 |
| 20260504022503 | 54 | 155 | 1.0 | 3.0 | 0.00 | 0.00 | 0.00 | 72 | 1008.3 |
| 20260504022025 | 54 | 154 | 1.0 | 3.0 | 0.00 | 0.00 | 0.00 | 75 | 1008.3 |
| 20260504021503 | 55 | 164 | 1.0 | 3.0 | 0.00 | 0.00 | 0.00 | 72 | 1008.3 |
| 20260504021003 | 54 | 168 | 1.0 | 3.0 | 0.00 | 0.00 | 0.00 | 72 | 1008.3 |
| 20260504020524 | 55 | 167 | 1.0 | 3.0 | 0.00 | 0.00 | 0.00 | 71 | 1008.2 |
| 20260504020003 | 54 | 161 | 1.0 | 3.0 | 0.00 | 0.00 | 0.00 | 71 | 1008.4 |
| 20260504015524 | 54 | 157 | 1.0 | 2.0 | 0.00 | 0.00 | 0.00 | 72 | 1008.3 |
| 20260504015024 | 54 | 158 | 1.0 | 3.0 | 0.00 | 0.00 | 0.00 | 72 | 1008.3 |
| 20260504014503 | 55 | 156 | 1.0 | 3.0 | 0.00 | 0.00 | 0.00 | 71 | 1008.4 |
| 20260504014003 | 55 | 150 | 1.0 | 2.0 | 0.00 | 0.00 | 0.00 | 70 | 1008.4 |
| 20260504013525 | 56 | 140 | 1.0 | 2.0 | 0.00 | 0.00 | 0.00 | 69 | 1008.5 |
| 20260504013003 | 56 | 144 | 1.0 | 2.0 | 0.00 | 0.00 | 0.00 | 70 | 1008.3 |
| 20260504012502 | 56 | 151 | 1.0 | 2.0 | 0.00 | 0.00 | 0.00 | 69 | 1008.5 |
| 20260504012003 | 56 | 162 | 0.0 | 2.0 | 0.00 | 0.00 | 0.00 | 70 | 1008.6 |
| 20260504011503 | 57 | 164 | 0.0 | 1.0 | 0.00 | 0.00 | 0.00 | 69 | 1008.5 |
| 20260504011003 | 57 | 165 | 0.0 | 1.0 | 0.00 | 0.00 | 0.00 | 67 | 1008.6 |
| 20260504010504 | 58 | 165 | 0.0 | 1.0 | 0.00 | 0.00 | 0.00 | 66 | 1008.6 |
| 20260504010004 | 58 | 165 | 1.0 | 3.0 | 0.00 | 0.00 | 0.00 | 67 | 1008.6 |
| 20260504005503 | 58 | 162 | 1.0 | 3.0 | 0.00 | 0.00 | 0.00 | 65 | 1008.6 |
| 20260504005025 | 59 | 163 | 1.0 | 3.0 | 0.00 | 0.00 | 0.00 | 63 | 1008.5 |
| 20260504004502 | 60 | 172 | 2.0 | 4.0 | 0.00 | 0.00 | 0.00 | 63 | 1008.7 |
| 20260504004003 | 60 | 174 | 3.0 | 4.0 | 0.00 | 0.00 | 0.00 | 61 | 1008.6 |
| 20260504003504 | 60 | 170 | 3.0 | 4.0 | 0.00 | 0.00 | 0.00 | 61 | 1008.5 |
| 20260504003004 | 60 | 164 | 3.0 | 4.0 | 0.00 | 0.00 | 0.00 | 62 | 1008.4 |
| 20260504002503 | 60 | 162 | 3.0 | 4.0 | 0.00 | 0.00 | 0.00 | 62 | 1008.5 |
| 20260504002003 | 59 | 158 | 2.0 | 4.0 | 0.00 | 0.00 | 0.00 | 64 | 1008.6 |
| 20260504001504 | 56 | 141 | 0.0 | 3.0 | 0.00 | 0.00 | 0.00 | 70 | 1008.4 |
| 20260504001003 | 55 | 135 | 0.0 | 1.0 | 0.00 | 0.00 | 0.00 | 72 | 1008.5 |
| 20260504000504 | 56 | 0 | 0.0 | 0.0 | 0.00 | 0.00 | 0.00 | 72 | 1008.5 |
| 20260504000004 | 56 | 135 | 0.0 | 1.0 | 0.00 | 0.00 | 0.00 | 72 | 1008.5 |
| 20260503235503 | 56 | 135 | 0.0 | 1.0 | 0.00 | 0.00 | 0.00 | 72 | 1008.4 |
| 20260503235004 | 56 | 135 | 0.0 | 1.0 | 0.00 | 0.00 | 0.00 | 71 | 1008.7 |
| 20260503234502 | 56 | 135 | 0.0 | 1.0 | 0.00 | 0.00 | 0.00 | 70 | 1008.6 |
| 20260503234003 | 57 | 135 | 0.0 | 1.0 | 0.00 | 0.00 | 0.00 | 72 | 1008.6 |
| 20260503233502 | 57 | 135 | 0.0 | 1.0 | 0.00 | 0.00 | 0.00 | 72 | 1008.7 |
| 20260503233002 | 57 | 135 | 0.0 | 1.0 | 0.00 | 0.00 | 0.00 | 70 | 1008.8 |
| 20260503232523 | 57 | 135 | 0.0 | 1.0 | 0.00 | 0.00 | 0.00 | 71 | 1008.8 |
| 20260503232004 | 57 | 0 | 0.0 | 0.0 | 0.00 | 0.00 | 0.00 | 71 | 1008.9 |
| 20260503231504 | 57 | 0 | 0.0 | 0.0 | 0.00 | 0.00 | 0.00 | 71 | 1008.9 |
| 20260503231003 | 57 | 135 | 0.0 | 1.0 | 0.00 | 0.00 | 0.00 | 72 | 1009.0 |
| 20260503230503 | 57 | 135 | 0.0 | 1.0 | 0.00 | 0.00 | 0.00 | 72 | 1009.2 |
| 20260503230003 | 57 | 135 | 0.0 | 2.0 | 0.00 | 0.00 | 0.00 | 72 | 1009.2 |
| 20260503225503 | 56 | 135 | 1.0 | 2.0 | 0.00 | 0.00 | 0.00 | 74 | 1009.1 |
| 20260503225003 | 56 | 135 | 0.0 | 1.0 | 0.00 | 0.00 | 0.00 | 75 | 1009.1 |
| 20260503224504 | 56 | 135 | 0.0 | 2.0 | 0.00 | 0.00 | 0.00 | 75 | 1009.0 |
| 20260503224003 | 56 | 135 | 0.0 | 2.0 | 0.00 | 0.00 | 0.00 | 75 | 1009.0 |
| 20260503223502 | 56 | 135 | 0.0 | 1.0 | 0.00 | 0.00 | 0.00 | 74 | 1009.1 |
| 20260503223003 | 57 | 135 | 0.0 | 1.0 | 0.00 | 0.00 | 0.00 | 74 | 1009.2 |
| 20260503222502 | 57 | 135 | 1.0 | 2.0 | 0.00 | 0.00 | 0.00 | 71 | 1008.9 |
| 20260503222002 | 58 | 136 | 1.0 | 2.0 | 0.00 | 0.00 | 0.00 | 70 | 1009.1 |
| 20260503221504 | 58 | 136 | 1.0 | 2.0 | 0.00 | 0.00 | 0.00 | 70 | 1009.2 |
| 20260503221024 | 57 | 135 | 1.0 | 2.0 | 0.00 | 0.00 | 0.00 | 71 | 1009.4 |
| 20260503220504 | 58 | 134 | 1.0 | 2.0 | 0.00 | 0.00 | 0.00 | 71 | 1009.4 |
| 20260503215004 | 58 | 130 | 1.0 | 1.0 | 0.00 | 0.00 | 0.00 | 73 | 1009.4 |
| 20260503214504 | 58 | 130 | 0.0 | 1.0 | 0.00 | 0.00 | 0.00 | 72 | 1009.6 |
| 20260503214004 | 59 | 130 | 0.0 | 1.0 | 0.00 | 0.00 | 0.00 | 70 | 1009.5 |
| 20260503213504 | 59 | 130 | 0.0 | 1.0 | 0.00 | 0.00 | 0.00 | 70 | 1009.7 |
| 20260503213004 | 59 | 130 | 1.0 | 2.0 | 0.00 | 0.00 | 0.00 | 70 | 1009.5 |
| 20260503212505 | 60 | 127 | 1.0 | 3.0 | 0.00 | 0.00 | 0.00 | 70 | 1009.8 |
| 20260503212004 | 60 | 128 | 1.0 | 3.0 | 0.00 | 0.00 | 0.00 | 67 | 1009.8 |
| 20260503211505 | 59 | 129 | 1.0 | 3.0 | 0.00 | 0.00 | 0.00 | 68 | 1009.8 |
| 20260503211005 | 59 | 128 | 1.0 | 2.0 | 0.00 | 0.00 | 0.00 | 69 | 1009.9 |
| 20260503210505 | 58 | 128 | 1.0 | 2.0 | 0.00 | 0.00 | 0.00 | 70 | 1010.0 |
| 20260503210005 | 58 | 128 | 0.0 | 1.0 | 0.00 | 0.00 | 0.00 | 75 | 1010.0 |
| 20260503205504 | 58 | 128 | 0.0 | 1.0 | 0.00 | 0.00 | 0.00 | 75 | 1010.2 |
| 20260503205004 | 58 | 0 | 0.0 | 0.0 | 0.00 | 0.00 | 0.00 | 72 | 1010.2 |
| 20260503204504 | 58 | 128 | 0.0 | 1.0 | 0.00 | 0.00 | 0.00 | 72 | 1010.2 |
| 20260503204026 | 58 | 128 | 1.0 | 1.0 | 0.00 | 0.00 | 0.00 | 72 | 1010.3 |
| 20260503203505 | 58 | 128 | 1.0 | 2.0 | 0.00 | 0.00 | 0.00 | 74 | 1010.3 |
| 20260503203004 | 59 | 128 | 0.0 | 2.0 | 0.00 | 0.00 | 0.00 | 74 | 1010.2 |
| 20260503202504 | 59 | 128 | 0.0 | 1.0 | 0.00 | 0.00 | 0.00 | 71 | 1010.4 |
| 20260503202005 | 59 | 130 | 1.0 | 4.0 | 0.00 | 0.00 | 0.00 | 72 | 1010.3 |
| 20260503201504 | 59 | 133 | 2.0 | 8.0 | 0.00 | 0.00 | 0.00 | 72 | 1010.6 |
| 20260503201046 | 58 | 143 | 2.0 | 8.0 | 0.00 | 0.00 | 0.00 | 74 | 1010.5 |
| 20260503200504 | 58 | 206 | 0.0 | 6.0 | 0.00 | 0.00 | 0.00 | 77 | 1010.4 |
| 20260503200004 | 58 | 231 | 1.0 | 6.0 | 0.00 | 0.00 | 0.00 | 75 | 1010.5 |
| 20260503195504 | 58 | 248 | 1.0 | 6.0 | 0.00 | 0.00 | 0.00 | 77 | 1010.3 |
| 20260503195004 | 59 | 276 | 1.0 | 2.0 | 0.00 | 0.00 | 0.00 | 74 | 1010.1 |
| 20260503194504 | 60 | 290 | 2.0 | 8.0 | 0.00 | 0.00 | 0.00 | 71 | 1010.9 |
| 20260503194005 | 60 | 305 | 2.0 | 8.0 | 0.00 | 0.00 | 0.00 | 64 | 1011.5 |
| 20260503193504 | 60 | 322 | 1.0 | 6.0 | 0.00 | 0.00 | 0.00 | 63 | 1011.6 |
| 20260503193004 | 59 | 333 | 0.0 | 2.0 | 0.00 | 0.00 | 0.00 | 68 | 1011.9 |
| 20260503192525 | 59 | 334 | 0.0 | 1.0 | 0.00 | 0.00 | 0.00 | 66 | 1010.8 |
| 20260503192026 | 59 | 0 | 0.0 | 0.0 | 0.00 | 0.00 | 0.00 | 65 | 1010.3 |
| 20260503191525 | 59 | 334 | 0.0 | 1.0 | 0.00 | 0.00 | 0.00 | 63 | 1010.4 |
| 20260503191004 | 60 | 0 | 0.0 | 0.0 | 0.00 | 0.00 | 0.00 | 62 | 1010.5 |
| 20260503190505 | 60 | 0 | 0.0 | 0.0 | 0.00 | 0.00 | 0.00 | 62 | 1010.5 |
| 20260503190004 | 60 | 0 | 0.0 | 0.0 | 0.00 | 0.00 | 0.00 | 59 | 1010.4 |
| 20260503185504 | 61 | 334 | 0.0 | 1.0 | 0.00 | 0.00 | 0.00 | 59 | 1010.5 |
| 20260503185004 | 61 | 334 | 0.0 | 1.0 | 0.00 | 0.00 | 0.00 | 58 | 1010.4 |
| 20260503184504 | 61 | 334 | 0.0 | 1.0 | 0.00 | 0.00 | 0.00 | 57 | 1010.4 |
| 20260503184025 | 61 | 334 | 0.0 | 1.0 | 0.00 | 0.00 | 0.00 | 57 | 1010.4 |
| 20260503183504 | 61 | 334 | 0.0 | 1.0 | 0.00 | 0.00 | 0.00 | 60 | 1010.4 |
| 20260503183004 | 62 | 0 | 0.0 | 0.0 | 0.00 | 0.00 | 0.00 | 59 | 1010.3 |
| 20260503182504 | 62 | 334 | 0.0 | 1.0 | 0.00 | 0.00 | 0.00 | 57 | 1010.3 |
| 20260503182006 | 63 | 334 | 0.0 | 1.0 | 0.00 | 0.00 | 0.00 | 56 | 1010.2 |
| 20260503181505 | 63 | 334 | 0.0 | 1.0 | 0.00 | 0.00 | 0.00 | 56 | 1010.0 |
| 20260503181005 | 63 | 334 | 0.0 | 1.0 | 0.00 | 0.00 | 0.00 | 56 | 1010.3 |
| 20260503180505 | 64 | 334 | 0.0 | 1.0 | 0.00 | 0.00 | 0.00 | 55 | 1010.2 |
| 20260503180004 | 64 | 0 | 0.0 | 0.0 | 0.00 | 0.00 | 0.00 | 54 | 1010.1 |
| 20260503175525 | 65 | 334 | 0.0 | 1.0 | 0.00 | 0.00 | 0.00 | 54 | 1010.1 |
| 20260503175004 | 65 | 334 | 0.0 | 1.0 | 0.00 | 0.00 | 0.00 | 52 | 1010.1 |
| 20260503174525 | 65 | 334 | 0.0 | 1.0 | 0.00 | 0.00 | 0.00 | 53 | 1010.0 |
| 20260503174025 | 66 | 334 | 0.0 | 1.0 | 0.00 | 0.00 | 0.00 | 51 | 1010.1 |
| 20260503173504 | 67 | 334 | 0.0 | 1.0 | 0.00 | 0.00 | 0.00 | 50 | 1010.1 |
| 20260503173004 | 67 | 334 | 0.0 | 1.0 | 0.00 | 0.00 | 0.00 | 50 | 1010.2 |
| 20260503172505 | 68 | 334 | 0.0 | 1.0 | 0.00 | 0.00 | 0.00 | 49 | 1010.1 |
| 20260503172005 | 69 | 335 | 0.0 | 1.0 | 0.00 | 0.00 | 0.00 | 49 | 1010.1 |
| 20260503171525 | 69 | 335 | 0.0 | 1.0 | 0.00 | 0.00 | 0.00 | 49 | 1010.2 |
| 20260503171004 | 69 | 335 | 0.0 | 1.0 | 0.00 | 0.00 | 0.00 | 47 | 1010.0 |
| 20260503170505 | 70 | 335 | 0.0 | 1.0 | 0.00 | 0.00 | 0.00 | 48 | 1010.1 |
| 20260503151005 | 75 | 309 | 1.0 | 4.0 | 0.00 | 0.00 | 0.00 | 38 | 1010.1 |
| 20260503150505 | 75 | 301 | 1.0 | 4.0 | 0.00 | 0.00 | 0.00 | 39 | 1010.3 |
| 20260503131003 | 81 | 282 | 4.0 | 11.0 | 0.00 | 0.00 | 0.00 | 29 | 1010.7 |
| 20260503130505 | 83 | 282 | 2.0 | 7.0 | 0.00 | 0.00 | 0.00 | 29 | 1010.5 |
| 20260503110503 | 83 | 165 | 4.0 | 13.0 | 0.00 | 0.00 | 0.00 | 28 | 1011.3 |
| 20260503090504 | 81 | 177 | 4.0 | 10.0 | 0.00 | 0.00 | 0.00 | 28 | 1012.3 |
| 20260503081505 | 76 | 176 | 6.0 | 11.0 | 0.00 | 0.00 | 0.00 | 34 | 1012.7 |
| 20260503081005 | 76 | 177 | 5.0 | 11.0 | 0.00 | 0.00 | 0.00 | 31 | 1012.6 |
| 20260503080526 | 76 | 175 | 5.0 | 13.0 | 0.00 | 0.00 | 0.00 | 34 | 1012.6 |
| 20260503072504 | 73 | 168 | 5.0 | 8.0 | 0.00 | 0.00 | 0.00 | 35 | 1012.8 |
| 20260503072004 | 72 | 171 | 5.0 | 8.0 | 0.00 | 0.00 | 0.00 | 39 | 1013.0 |
| 20260503071505 | 72 | 176 | 4.0 | 8.0 | 0.00 | 0.00 | 0.00 | 37 | 1013.2 |
| 20260503071004 | 72 | 176 | 3.0 | 8.0 | 0.00 | 0.00 | 0.00 | 38 | 1013.0 |
| 20260503070505 | 71 | 173 | 3.0 | 8.0 | 0.00 | 0.00 | 0.00 | 39 | 1013.1 |
| 20260503055005 | 64 | 165 | 5.0 | 9.0 | 0.00 | 0.00 | 0.00 | 46 | 1013.1 |
| 20260503054504 | 63 | 162 | 5.0 | 9.0 | 0.00 | 0.00 | 0.00 | 47 | 1013.1 |
| 20260503054005 | 62 | 163 | 5.0 | 9.0 | 0.00 | 0.00 | 0.00 | 49 | 1013.2 |
| 20260503053505 | 61 | 162 | 5.0 | 8.0 | 0.00 | 0.00 | 0.00 | 50 | 1013.1 |
| 20260503053004 | 61 | 161 | 5.0 | 8.0 | 0.00 | 0.00 | 0.00 | 51 | 1013.2 |
| 20260503052505 | 61 | 164 | 5.0 | 8.0 | 0.00 | 0.00 | 0.00 | 50 | 1013.1 |
| 20260503052026 | 60 | 164 | 5.0 | 9.0 | 0.00 | 0.00 | 0.00 | 50 | 1013.2 |
| 20260503051504 | 60 | 164 | 5.0 | 9.0 | 0.00 | 0.00 | 0.00 | 52 | 1013.3 |
| 20260503051005 | 60 | 165 | 5.0 | 8.0 | 0.00 | 0.00 | 0.00 | 51 | 1013.3 |
| 20260503050504 | 60 | 163 | 5.0 | 10.0 | 0.00 | 0.00 | 0.00 | 51 | 1013.2 |
| 20260503050006 | 59 | 164 | 5.0 | 10.0 | 0.00 | 0.00 | 0.00 | 52 | 1013.3 |
| 20260503045505 | 59 | 165 | 5.0 | 8.0 | 0.00 | 0.00 | 0.00 | 52 | 1013.2 |
| 20260503045005 | 58 | 164 | 5.0 | 9.0 | 0.00 | 0.00 | 0.00 | 53 | 1013.1 |
| 20260503044505 | 58 | 164 | 5.0 | 9.0 | 0.00 | 0.00 | 0.00 | 55 | 1013.2 |
| 20260503044026 | 57 | 162 | 5.0 | 8.0 | 0.00 | 0.00 | 0.00 | 55 | 1013.3 |
| 20260503043505 | 57 | 161 | 5.0 | 8.0 | 0.00 | 0.00 | 0.00 | 56 | 1013.3 |
| 20260503043005 | 56 | 164 | 4.0 | 7.0 | 0.00 | 0.00 | 0.00 | 56 | 1013.2 |
| 20260503042526 | 56 | 165 | 4.0 | 7.0 | 0.00 | 0.00 | 0.00 | 57 | 1013.3 |
| 20260503042004 | 56 | 165 | 4.0 | 6.0 | 0.00 | 0.00 | 0.00 | 58 | 1013.3 |
| 20260503041525 | 56 | 169 | 4.0 | 6.0 | 0.00 | 0.00 | 0.00 | 58 | 1013.3 |
| 20260503041004 | 56 | 173 | 4.0 | 6.0 | 0.00 | 0.00 | 0.00 | 58 | 1013.3 |
| 20260503040504 | 55 | 175 | 4.0 | 6.0 | 0.00 | 0.00 | 0.00 | 58 | 1013.3 |
| 20260503040004 | 55 | 174 | 3.0 | 4.0 | 0.00 | 0.00 | 0.00 | 59 | 1013.4 |
| 20260503035505 | 54 | 176 | 3.0 | 4.0 | 0.00 | 0.00 | 0.00 | 60 | 1013.3 |